Temperature
19 19 19 19 19 19 19 19 19 19 19 19 19 19 19 19 19 19 19 19 19 19 19 19 19 19 19 19 19 19 19 19 18 18 19 18 18 18 18 18 18 18 18
19 19 19 19 19 19 19 19 19 19 19 19 19 19 19 19 19 19 19 19 19 19 19 19 19 19 19 19 19 19 19 18 18 18 18 18 18 18 18 18 18 18 18
19 19 19 18 19 19 19 18 19 19 19 19 19 19 19 19 19 19 19 19 19 19 19 19 19 19 19 19 19 19 18 18 18 18 18 18 18 18 18 18 18 18 18
18 18 18 18 18 18 18 18 18 18 18 18 19 19 19 19 19 19 19 19 19 19 19 19 19 19 19 19 18 18 18 18 18 18 18 18 18 18 18 18 18 18 18
18 18 18 18 18 18 18 18 18 18 18 18 18 18 18 19 19 19 19 19 19 19 19 19 19 18 18 18 18 18 18 18 18 18 18 18 18 18 18 18 18 18 18
18 18 18 18 17 17 17 17 17 17 18 18 18 18 18 18 18 18 19 19 19 19 19 18 18 18 18 18 18 18 18 18 18 18 18 18 18 18 18 18 18 18 18
18 18 17 17 17 17 17 17 17 17 17 17 17 17 17 18 18 18 18 18 18 18 18 18 18 18 18 18 18 18 18 18 18 18 18 18 18 18 18 18 18 18 18
18 18 18 17 17 17 17 17 17 17 17 17 17 17 17 17 17 17 18 18 18 18 18 18 18 18 18 18 18 18 18 18 18 18 18 18 18 18 18 18 18 18 18
18 18 17 17 17 17 17 17 17 17 17 17 17 17 17 17 17 17 17 17 17 18 18 18 18 18 18 18 18 18 18 18 18 18 18 18 18 18 18 18 18 18 18
18 17 17 17 17 16 16 16 16 16 16 16 16 16 16 16 17 17 17 17 17 17 17 17 18 18 18 18 18 18 18 18 18 18 18 18 18 18 18 18 18 18 18
17 17 17 16 16 16 16 16 16 16 16 16 16 16 16 16 16 16 16 17 17 17 17 17 17 17 18 17 18 18 18 18 18 18 18 18 18 18 18 18 18 18 18
17 17 16 16 16 15 15 15 15 15 15 15 15 16 16 16 16 16 16 16 16 17 17 17 17 17 17 17 17 17 18 18 18 18 18 18 18 18 18 18 18 18 18
17 17 16 16 15 15 15 15 15 15 15 15 15 15 15 15 15 16 16 16 16 16 16 17 17 17 17 17 17 17 17 18 18 18 18 18 18 17 18 18 18 18 18
17 16 16 15 15 15 15 15 14 14 14 14 14 15 15 15 15 15 15 16 16 16 16 16 16 17 17 17 17 17 17 17 18 18 18 17 17 17 17 18 18 18 18
16 16 15 15 15 14 14 14 14 14 14 14 14 14 14 15 15 15 15 15 15 15 16 16 16 16 16 16 17 17 17 17 17 18 18 17 17 17 17 17 18 18 18
16 16 15 15 14 14 14 14 14 14 14 14 14 14 14 14 14 14 15 15 15 15 15 15 16 16 16 16 16 17 17 17 17 17 18 18 17 17 17 17 17 17 17
16 16 15 14 14 14 14 14 14 14 13 13 14 13 14 14 14 14 14 14 14 15 15 15 15 15 16 16 16 16 16 17 17 17 17 18 18 17 17 17 17 17 17
16 15 15 14 14 14 13 13 13 13 13 13 13 13 13 13 13 14 14 14 14 14 15 15 15 15 15 16 16 16 16 17 17 17 17 18 18 18 17 17 17 17 17
16 15 14 14 13 13 13 13 13 13 13 13 13 13 13 13 13 13 13 14 14 14 14 14 14 15 15 15 15 16 16 16 17 17 17 17 18 18 17 17 17 17 17
15 15 14 14 13 13 13 13 13 13 13 12 12 13 13 13 13 13 13 13 13 14 14 14 14 14 14 15 15 15 16 16 16 17 17 17 17 17 17 17 17 17 17
15 14 14 13 13 13 13 13 13 13 12 12 12 12 12 12 13 13 13 13 13 13 13 14 14 14 14 14 15 15 15 16 16 16 17 17 17 17 17 17 17 17 17
15 14 14 13 13 13 13 13 12 12 12 12 12 12 12 12 12 12 13 13 13 13 13 13 13 13 14 14 14 14 15 15 16 16 17 17 17 17 17 17 17 17 17
15 14 14 13 13 13 12 12 12 12 12 12 12 12 12 12 12 12 12 12 13 13 13 13 13 13 13 13 14 14 14 15 15 16 16 16 17 17 17 17 17 17 17
15 14 14 13 13 13 12 12 12 12 12 12 12 12 12 12 12 12 12 12 12 12 13 13 13 13 13 13 13 13 14 14 14 15 16 16 16 16 17 17 17 17 17
15 14 14 13 13 13 12 12 12 12 12 12 12 12 12 12 12 12 12 12 12 12 12 12 13 13 13 13 13 13 13 14 14 14 14 15 16 16 16 16 17 17 17
15 14 14 13 13 13 12 12 12 12 12 12 12 12 12 12 12 12 12 12 12 12 12 12 12 12 13 13 13 13 13 13 14 14 14 14 15 15 16 16 16 17 17
Wind_Speed
2 4 6 7 7 7 7 7 7 7 7 7 7 7 7 7 6 6 5 5 5 4 4 4 5 5 6 6 6 6 6 5 5 6 6 6 6 6 6 6 7 6 7
3 5 7 7 6 6 6 6 6 6 6 6 6 6 6 6 5 5 4 4 3 3 3 3 3 4 4 5 5 5 4 4 4 4 4 4 5 5 6 6 6 5 7
3 4 6 6 6 6 5 5 5 5 5 6 6 6 6 5 5 5 4 4 3 3 2 2 2 2 3 3 3 3 3 3 3 3 4 3 2 4 5 5 6 6 7
3 3 3 4 5 5 5 5 5 5 6 5 6 6 6 6 6 5 5 5 4 4 4 3 2 2 1 1 1 2 2 2 2 3 2 1 1 3 4 5 5 6 6
3 2 1 2 3 3 4 4 5 6 5 5 6 6 7 7 7 7 6 6 6 5 5 5 4 4 3 1 0 1 2 2 2 3 2 1 1 3 4 4 5 5 5
2 2 1 2 2 2 3 4 5 5 6 6 7 8 8 9 8 8 8 8 7 7 7 6 6 6 5 3 2 1 1 1 2 2 1 2 2 3 4 4 4 5 5
2 1 0 2 2 2 3 4 5 6 6 7 8 8 9 9 9 9 9 9 9 9 8 8 8 7 6 5 4 2 1 0 1 1 1 2 4 4 5 5 5 5 5
2 1 2 2 1 1 2 4 5 6 6 7 8 8 9 10 9 10 9 9 9 10 10 9 9 9 8 7 6 4 3 2 1 0 2 3 5 6 5 5 6 6 6
3 3 4 4 4 5 5 5 5 6 6 7 7 8 9 9 9 10 10 9 10 10 10 10 10 10 9 8 7 6 5 3 2 2 2 3 5 7 7 6 6 6 7
3 3 3 5 5 5 6 7 7 7 7 7 8 8 9 9 9 10 9 9 10 10 10 10 10 10 10 9 9 8 6 3 2 3 3 4 6 7 7 7 7 7 7
3 3 3 4 5 6 5 7 8 8 7 7 7 8 8 7 7 8 8 9 10 11 9 9 9 10 9 9 9 9 6 3 3 4 4 6 7 7 8 8 8 8 7
1 2 2 3 4 5 5 6 7 7 7 6 6 7 6 6 6 7 7 9 9 9 9 9 9 8 8 6 7 8 5 5 5 5 6 8 8 8 9 9 9 9 8
1 1 2 2 3 3 3 4 5 5 6 6 6 6 5 5 5 5 4 6 7 6 5 6 6 5 4 4 4 5 5 5 5 6 7 9 9 9 9 10 10 10 9
1 0 2 2 2 3 3 3 3 3 3 4 5 5 3 2 2 3 2 3 4 3 3 3 2 4 4 5 5 5 5 5 6 6 8 9 10 10 10 11 11 11 11
2 1 1 2 2 3 3 3 3 3 3 4 5 5 3 1 2 2 2 2 3 3 2 2 2 3 3 3 4 5 5 5 7 7 7 9 10 11 11 11 12 12 12
2 1 1 1 2 3 3 3 2 3 3 4 4 5 4 2 2 2 3 3 2 3 2 2 3 3 3 3 4 4 5 5 6 7 8 8 10 11 12 11 12 13 13
2 1 1 0 2 3 3 3 2 3 3 3 4 5 5 4 3 2 2 2 3 3 2 2 2 2 2 2 3 4 4 4 4 6 7 7 7 9 11 12 12 13 13
1 0 1 2 3 3 3 3 3 3 3 3 4 4 5 5 3 2 2 3 3 2 1 2 2 2 2 2 2 3 3 3 4 5 6 6 6 6 9 11 12 13 13
2 1 1 2 2 3 4 3 3 3 3 3 3 4 4 5 4 2 2 3 3 2 1 2 1 2 2 2 3 3 3 3 4 4 4 5 6 6 7 9 12 14 14
1 0 1 2 3 3 3 3 3 3 3 3 3 4 5 4 4 2 2 2 2 1 1 1 1 1 2 2 2 2 3 3 3 3 4 3 4 6 6 7 8 11 14
1 1 1 2 3 2 2 2 3 3 4 4 3 4 5 5 4 2 2 2 2 1 1 1 0 1 1 1 0 1 2 2 3 3 3 3 4 4 5 6 7 8 10
2 2 3 3 3 2 2 2 2 3 3 3 4 4 5 5 4 3 2 2 1 1 1 1 0 1 1 1 1 1 1 2 2 3 2 3 3 2 4 5 6 8 9
4 4 3 4 3 3 3 2 2 3 3 3 4 4 4 5 4 3 2 1 1 0 1 1 1 1 1 1 1 2 2 2 1 1 2 2 2 2 3 3 6 8 10
6 4 4 4 3 3 2 2 2 2 2 3 3 4 5 5 4 4 3 2 2 1 1 2 1 1 1 1 1 1 2 2 1 1 2 1 2 3 4 4 5 6 9
5 4 3 3 3 3 2 2 2 2 2 3 3 5 5 5 4 4 3 2 2 1 2 2 1 1 1 2 1 1 0 0 1 1 1 2 1 2 3 4 4 4 7
3 3 3 3 4 3 2 2 2 3 3 4 4 5 5 4 4 5 3 3 2 2 2 2 2 1 2 2 2 2 2 1 2 2 2 2 2 2 2 3 4 4 5
Wind_Direction
203 199 181 160 156 158 163 164 161 157 154 153 151 147 144 140 136 135 132 129 126 118 108 103 100 100 94 90 90 89 88 86 85 87 86 81 88 99 101 100 97 91 92
162 178 183 168 163 167 171 176 179 177 174 172 170 167 163 159 156 155 151 149 144 139 127 115 115 105 99 93 92 90 86 79 82 93 95 84 89 105 109 109 110 106 100
146 173 183 176 175 178 185 192 198 201 197 192 190 188 186 182 182 181 180 179 178 176 172 161 138 122 107 96 89 84 77 66 78 99 102 84 88 112 115 117 119 115 108
130 149 179 191 194 196 200 206 209 218 217 214 213 211 212 209 208 206 209 207 206 205 206 212 215 197 158 117 83 72 65 62 85 110 110 132 148 134 134 130 129 124 119
110 121 201 215 223 226 224 230 238 241 239 236 239 235 233 231 227 223 225 224 224 224 224 224 227 225 225 220 181 41 43 59 81 97 115 160 202 162 149 144 140 134 131
115 122 207 240 252 263 264 263 261 263 264 259 257 257 252 247 243 238 236 236 235 236 236 235 232 230 235 239 235 271 359 48 81 90 120 177 207 194 172 161 155 146 138
106 85 186 228 246 264 275 273 274 276 275 274 273 272 269 264 260 255 250 246 243 242 242 242 238 235 238 241 241 249 269 289 118 141 177 203 218 212 191 176 170 161 152
93 48 22 357 358 337 308 300 301 296 288 282 282 284 283 278 273 269 265 262 257 251 249 247 242 237 239 242 242 245 250 252 158 167 227 226 225 219 203 190 184 175 169
51 38 21 12 11 357 342 331 325 316 304 298 299 298 297 292 284 275 269 267 265 262 255 250 245 240 242 243 245 247 248 246 187 215 240 238 234 227 209 199 192 183 178
40 28 17 11 8 357 345 337 334 328 324 318 315 309 307 305 300 292 284 277 271 266 262 257 251 246 245 246 247 247 250 248 214 228 244 253 244 235 217 203 196 187 182
26 16 15 10 1 354 343 350 349 341 339 335 329 322 318 315 311 300 292 288 282 275 271 267 260 255 253 253 255 251 248 229 223 231 242 254 250 241 222 207 198 190 187
357 358 15 11 4 1 358 358 353 350 344 338 328 321 314 308 306 301 302 297 295 288 280 275 269 263 259 253 258 257 240 226 227 236 244 249 247 241 225 210 203 195 193
210 356 3 358 0 5 354 349 349 347 345 341 337 328 318 315 313 311 310 307 306 297 286 280 278 265 253 242 245 242 232 227 230 239 247 248 246 241 227 214 206 201 195
147 298 347 358 4 359 354 342 340 341 339 339 338 338 338 329 320 312 303 293 293 290 282 273 265 262 258 246 240 239 236 232 231 235 245 249 247 241 231 220 210 203 197
181 242 335 7 13 4 1 340 357 342 338 334 337 341 346 326 311 307 301 303 292 278 270 271 260 258 249 246 242 236 232 233 234 233 239 245 246 243 236 225 213 206 200
212 247 340 15 11 11 3 344 335 346 342 342 341 340 342 332 311 314 311 305 298 283 267 255 246 243 246 240 247 237 234 233 233 234 235 243 248 243 235 228 217 208 204
214 275 330 209 23 9 353 343 348 342 346 343 336 338 339 335 326 311 303 300 299 297 276 260 255 236 242 246 251 248 235 233 232 233 232 235 244 244 233 226 219 211 208
181 90 346 17 19 356 347 338 336 342 347 340 335 336 337 337 330 316 297 290 300 307 284 255 240 236 236 240 246 250 242 240 238 233 228 227 230 234 230 226 219 211 211
178 174 334 352 343 338 341 339 337 344 345 338 341 342 338 338 334 320 294 294 311 298 280 272 232 224 239 240 239 241 245 247 247 240 227 222 222 221 221 224 221 213 211
161 208 300 321 326 333 338 344 344 349 344 343 342 340 340 341 338 330 299 311 322 307 298 276 243 239 242 239 250 253 243 246 245 240 234 223 216 216 217 217 218 219 215
194 266 285 305 317 336 344 342 337 329 325 331 332 341 343 344 345 333 320 324 330 313 295 288 242 243 260 206 160 284 274 251 246 245 235 224 219 211 208 210 210 213 216
228 250 268 279 296 311 304 289 273 285 297 297 311 333 345 346 344 338 327 316 316 311 333 325 216 190 233 181 158 150 292 313 276 252 233 225 226 210 212 218 210 213 211
237 241 250 261 281 302 316 334 345 348 337 340 339 336 331 339 342 335 328 321 322 326 282 280 242 191 223 238 188 161 168 225 279 303 259 241 220 219 227 216 214 216 215
235 240 249 259 280 303 327 349 354 349 325 305 308 310 320 334 340 341 334 334 335 330 302 284 237 217 188 217 253 230 202 171 175 320 331 306 244 228 231 230 221 215 214
231 233 247 267 284 306 329 328 337 325 296 303 315 329 336 336 338 340 333 334 331 315 295 291 296 239 198 200 200 203 212 193 176 181 282 313 303 248 231 230 225 215 213
236 239 246 262 281 302 322 325 320 310 318 333 339 343 340 335 336 345 342 340 327 313 299 291 281 248 215 211 213 197 182 187 191 185 221 260 276 275 253 237 228 219 215
Height
1523 1524 1526 1527 1528 1530 1531 1532 1532 1533 1533 1534 1534 1534 1534 1534 1534 1534 1534 1534 1534 1534 1534 1534 1533 1533 1533 1533 1533 1533 1533 1532 1532 1532 1532 1532 1532 1532 1532 1532 1532 1532 1532
1523 1524 1526 1527 1528 1530 1531 1532 1532 1533 1533 1533 1533 1534 1534 1534 1534 1534 1534 1534 1534 1534 1534 1534 1533 1533 1533 1533 1533 1533 1533 1533 1533 1533 1532 1532 1532 1532 1532 1533 1533 1533 1533
1524 1525 1526 1527 1529 1529 1530 1531 1532 1532 1533 1533 1533 1533 1533 1533 1533 1533 1533 1533 1533 1533 1533 1533 1533 1533 1533 1533 1533 1533 1533 1533 1533 1533 1533 1533 1533 1533 1533 1533 1533 1534 1534
1524 1525 1527 1528 1528 1529 1530 1531 1531 1532 1532 1532 1532 1532 1532 1532 1532 1532 1532 1532 1532 1532 1533 1533 1533 1533 1533 1533 1533 1533 1533 1533 1533 1533 1533 1533 1533 1533 1533 1533 1534 1534 1535
1525 1526 1527 1528 1528 1529 1530 1530 1530 1531 1531 1531 1531 1531 1531 1531 1531 1531 1531 1531 1531 1531 1532 1532 1532 1532 1533 1533 1533 1533 1533 1533 1534 1533 1533 1534 1534 1534 1534 1534 1534 1535 1535
1526 1526 1527 1528 1528 1528 1528 1528 1529 1529 1529 1529 1529 1529 1530 1530 1529 1530 1530 1530 1530 1530 1530 1531 1531 1531 1532 1532 1532 1533 1533 1533 1533 1533 1534 1534 1534 1534 1534 1534 1535 1535 1536
1527 1527 1527 1527 1527 1527 1527 1527 1527 1527 1527 1527 1527 1527 1528 1528 1528 1528 1528 1528 1528 1529 1529 1529 1530 1530 1531 1531 1531 1532 1532 1533 1533 1533 1533 1534 1534 1534 1534 1535 1535 1536 1536
1527 1527 1528 1528 1527 1526 1526 1525 1525 1525 1525 1525 1525 1525 1525 1525 1525 1525 1526 1526 1526 1527 1527 1527 1528 1528 1529 1530 1530 1531 1531 1532 1532 1533 1533 1533 1534 1534 1534 1535 1535 1536 1536
1528 1527 1527 1527 1526 1525 1524 1524 1523 1523 1523 1523 1522 1522 1522 1522 1523 1523 1523 1523 1524 1524 1525 1525 1526 1527 1527 1528 1529 1529 1530 1531 1531 1532 1532 1533 1533 1533 1534 1534 1535 1536 1537
1528 1527 1527 1526 1525 1524 1523 1522 1522 1521 1521 1520 1519 1519 1519 1519 1520 1520 1520 1521 1521 1522 1522 1523 1524 1525 1525 1526 1527 1528 1528 1529 1530 1531 1531 1532 1533 1533 1533 1534 1535 1536 1536
1527 1527 1526 1525 1524 1523 1521 1520 1520 1519 1518 1517 1517 1517 1516 1516 1517 1517 1517 1517 1518 1519 1519 1520 1521 1522 1523 1524 1525 1526 1527 1527 1528 1529 1530 1531 1532 1532 1533 1533 1534 1535 1536
1527 1526 1525 1524 1523 1521 1520 1519 1518 1517 1516 1515 1515 1514 1514 1514 1514 1514 1514 1514 1515 1515 1516 1517 1518 1519 1520 1522 1523 1524 1524 1526 1527 1528 1529 1530 1530 1531 1532 1532 1533 1534 1536
1526 1525 1524 1523 1521 1520 1518 1517 1516 1515 1514 1513 1512 1512 1512 1511 1511 1511 1511 1511 1512 1512 1513 1514 1515 1516 1517 1519 1520 1521 1522 1524 1525 1526 1527 1528 1529 1530 1531 1531 1532 1534 1535
1526 1525 1524 1522 1520 1519 1517 1515 1514 1513 1512 1511 1510 1509 1509 1509 1508 1508 1508 1508 1509 1509 1510 1511 1512 1513 1515 1516 1517 1519 1520 1521 1522 1524 1525 1526 1527 1528 1529 1530 1531 1533 1534
1525 1524 1523 1521 1519 1517 1515 1514 1512 1511 1510 1509 1508 1507 1507 1506 1506 1506 1505 1505 1506 1506 1507 1508 1509 1510 1511 1513 1514 1515 1517 1518 1520 1522 1523 1524 1525 1527 1528 1529 1530 1531 1533
1525 1523 1522 1520 1518 1516 1514 1512 1511 1509 1508 1506 1506 1505 1504 1504 1503 1503 1503 1503 1503 1503 1504 1504 1506 1507 1508 1510 1511 1512 1514 1515 1517 1519 1521 1522 1523 1525 1526 1527 1528 1530 1531
1524 1523 1521 1519 1517 1515 1513 1511 1509 1507 1506 1505 1504 1503 1502 1501 1501 1500 1500 1500 1500 1500 1500 1501 1502 1504 1505 1506 1507 1509 1510 1512 1514 1516 1518 1520 1521 1522 1524 1525 1526 1528 1530
1523 1522 1520 1518 1516 1514 1512 1509 1508 1506 1504 1503 1502 1501 1500 1499 1498 1498 1497 1497 1497 1497 1498 1498 1499 1500 1501 1502 1504 1505 1507 1509 1511 1513 1515 1517 1518 1520 1522 1523 1525 1526 1528
1523 1521 1519 1517 1515 1513 1511 1508 1507 1505 1503 1501 1500 1499 1498 1497 1496 1495 1495 1495 1495 1495 1495 1495 1496 1497 1498 1499 1501 1502 1503 1505 1507 1509 1511 1513 1515 1517 1519 1521 1523 1524 1526
1522 1520 1519 1517 1514 1512 1510 1508 1506 1504 1502 1500 1499 1497 1496 1495 1494 1493 1493 1492 1492 1492 1492 1493 1493 1494 1495 1496 1497 1498 1500 1502 1503 1505 1507 1510 1512 1514 1516 1518 1520 1522 1524
1520 1519 1518 1516 1513 1511 1509 1507 1504 1503 1501 1499 1497 1496 1494 1493 1492 1491 1490 1490 1490 1490 1490 1491 1491 1492 1492 1493 1494 1495 1497 1498 1499 1501 1504 1506 1508 1511 1513 1515 1517 1519 1521
1519 1518 1517 1515 1513 1510 1508 1506 1504 1502 1500 1498 1496 1494 1493 1492 1491 1490 1489 1488 1488 1488 1488 1488 1489 1489 1489 1491 1492 1493 1494 1496 1496 1498 1500 1502 1504 1507 1509 1511 1514 1516 1518
1518 1517 1516 1514 1512 1510 1508 1505 1503 1501 1499 1497 1495 1493 1492 1490 1489 1488 1488 1487 1487 1486 1486 1486 1487 1487 1487 1488 1490 1491 1492 1492 1493 1495 1496 1499 1501 1503 1505 1508 1510 1513 1515
1517 1516 1515 1513 1511 1509 1507 1505 1503 1501 1498 1497 1495 1493 1491 1490 1488 1487 1487 1486 1485 1485 1485 1485 1485 1485 1486 1486 1488 1489 1491 1491 1492 1492 1494 1495 1497 1499 1502 1504 1506 1509 1511
1516 1515 1514 1512 1511 1509 1507 1505 1503 1501 1499 1497 1494 1492 1491 1489 1488 1487 1486 1485 1484 1484 1483 1483 1483 1483 1484 1485 1485 1486 1488 1489 1490 1491 1491 1493 1494 1496 1498 1500 1502 1505 1507
1514 1514 1513 1512 1510 1508 1506 1504 1503 1501 1499 1496 1494 1492 1491 1489 1488 1486 1485 1484 1483 1483 1482 1482 1482 1482 1482 1483 1484 1484 1485 1487 1487 1489 1490 1491 1492 1493 1494 1496 1498 1500 1502